Temperature
21 22 22 22 22 22 22 22 22 21 21 22 22 21 21 20 20 20 20 20 20 19 18 18 18 18 18 17 17 17 17 16 16 16 16 15 15 15 15 14 14 14 14 14
22 22 22 22 22 22 22 22 21 21 21 22 22 21 21 21 20 20 20 20 20 19 19 18 18 18 18 17 17 17 17 16 16 16 16 15 15 15 15 14 14 14 14 14
22 22 22 22 22 22 22 22 22 21 21 21 21 21 21 21 20 20 20 20 19 19 19 18 18 18 18 18 17 17 17 17 16 16 16 16 15 15 15 14 14 14 14 14
22 22 22 22 22 22 21 22 22 21 21 21 22 21 21 21 21 21 20 20 19 19 18 18 18 18 18 18 17 17 17 17 16 16 16 16 15 15 15 15 14 14 14 14
22 22 22 22 22 22 22 22 22 22 22 22 22 22 22 22 21 21 21 20 19 19 18 18 18 18 18 18 17 17 17 17 16 16 16 16 15 15 15 15 14 14 14 14
22 22 22 22 22 22 21 21 21 21 22 21 22 22 22 22 22 22 22 20 20 19 18 18 18 18 18 18 17 17 17 17 17 16 16 16 15 15 15 15 15 14 14 14
21 22 21 21 21 21 22 21 21 21 21 21 22 22 22 23 23 22 22 21 20 19 18 18 18 17 18 18 17 17 17 17 17 16 16 16 16 15 15 15 15 15 14 14
21 21 21 22 22 22 22 22 21 21 21 22 21 22 23 22 21 21 21 20 19 19 18 18 18 17 18 17 17 17 17 17 16 16 16 16 16 15 15 15 15 15 15 14
22 21 21 21 22 22 22 22 22 22 22 22 22 23 22 22 21 21 21 20 19 19 18 18 18 17 17 17 17 17 17 17 16 16 16 16 16 15 15 15 15 15 15 14
23 22 21 21 21 21 22 22 22 22 21 22 22 23 23 22 22 22 21 20 19 18 18 18 18 17 17 17 17 17 17 16 16 16 16 16 16 15 15 15 15 15 14 14
23 22 21 21 21 22 22 22 22 23 23 22 22 23 23 23 22 22 21 20 19 18 18 18 17 17 17 17 17 17 16 16 16 16 16 16 15 15 15 15 15 15 14 14
22 22 22 22 22 22 23 23 23 23 23 23 23 23 22 22 22 21 21 20 19 18 18 17 17 17 17 17 17 17 16 16 16 16 16 15 15 15 15 15 15 14 14 14
22 22 22 21 22 22 22 22 23 23 23 23 23 23 22 22 21 20 20 19 18 18 17 17 17 17 17 17 17 16 16 16 16 16 15 15 15 15 15 14 14 14 14 14
22 23 23 22 22 23 22 22 22 23 23 23 23 23 22 22 21 20 19 19 18 18 17 17 17 17 17 17 17 16 16 16 16 15 15 15 15 15 14 14 14 14 14 13
22 23 23 23 22 22 22 22 22 22 23 24 24 23 23 22 21 20 19 18 18 18 17 17 17 17 17 16 16 16 16 16 16 15 15 15 15 15 14 14 14 14 13 13
22 23 23 22 22 22 22 22 22 22 22 23 23 23 23 22 21 20 19 18 18 18 17 17 17 17 17 17 16 16 16 16 15 15 15 15 14 14 14 14 14 13 13 13
22 23 22 23 22 22 22 23 23 22 22 23 23 23 22 21 21 20 20 19 18 18 17 17 17 17 17 17 16 16 16 15 15 15 15 15 14 14 14 14 14 13 13 13
22 23 23 23 22 22 23 23 23 23 23 23 23 22 22 21 20 20 19 19 19 18 17 17 17 17 16 16 16 16 15 15 15 15 14 14 14 14 14 14 13 13 13 13
22 22 22 23 22 23 23 22 22 22 23 23 22 22 21 20 19 19 18 18 18 18 17 17 17 17 16 16 16 15 15 15 15 14 14 14 14 14 13 13 13 13 12 12
20 22 22 22 22 22 23 23 21 22 23 22 22 21 20 20 21 21 18 17 17 17 17 17 17 16 16 16 15 15 15 15 14 14 14 14 14 13 13 13 13 12 12 12
21 21 21 22 22 23 22 20 21 22 23 21 21 20 20 21 22 20 18 17 17 17 17 17 16 16 16 16 15 15 14 14 14 14 14 13 13 13 13 12 12 12 12 11
22 22 22 22 22 22 21 21 22 23 21 20 20 19 19 19 18 17 17 17 17 17 16 16 16 16 16 15 15 15 14 14 14 13 13 13 13 12 12 12 12 11 11 11
21 22 22 22 22 20 19 20 20 19 20 19 19 18 18 17 17 16 16 16 16 16 16 16 15 15 15 15 14 14 14 14 13 13 13 12 12 12 12 11 11 11 11 10
20 19 20 21 21 19 18 18 18 18 18 18 18 18 17 17 16 16 16 15 15 15 15 15 15 15 14 14 14 14 13 13 13 12 12 12 11 11 11 11 10 10 10 10
20 19 20 20 20 18 17 17 17 17 17 17 17 17 17 17 16 16 15 15 15 14 14 14 14 14 14 14 13 13 13 12 12 11 11 11 11 11 10 10 10 10 10 9
19 19 20 21 20 20 19 17 17 17 17 17 17 16 16 16 16 15 15 14 14 14 14 14 13 13 13 13 13 12 12 12 11 11 10 10 10 10 10 9 9 9 9 9
Wind_Speed
3 4 4 4 2 2 4 6 5 4 3 3 5 6 7 8 8 8 8 8 8 7 6 6 6 6 6 5 5 5 5 5 4 3 3 2 3 3 3 4 5 5 5 6
4 4 2 3 4 5 5 6 5 5 3 3 5 4 5 7 7 7 7 8 8 7 7 7 7 7 6 6 5 5 5 5 4 2 2 2 2 2 3 3 4 5 5 6
3 3 4 5 6 6 5 5 6 5 4 3 4 4 5 6 6 7 7 7 7 7 7 8 7 7 6 6 5 5 5 5 3 3 3 3 3 2 2 2 3 4 5 5
2 3 5 5 5 5 4 4 6 7 6 3 4 3 5 8 8 8 8 8 8 8 7 7 7 7 6 5 5 5 5 5 4 3 3 3 2 2 2 2 2 2 4 4
3 4 4 4 3 4 3 5 5 6 4 3 4 3 4 8 9 9 9 9 9 9 8 8 7 7 7 6 5 5 5 5 4 3 3 2 2 2 2 2 2 2 3 4
2 2 2 2 2 4 8 7 5 4 4 3 4 4 3 7 10 11 11 10 10 10 9 8 7 6 6 6 5 5 5 5 4 3 3 2 2 2 2 2 2 2 2 3
5 4 3 4 6 6 7 6 4 5 4 2 2 3 2 4 6 9 11 11 11 10 10 9 8 7 7 6 6 5 5 5 4 3 3 3 2 1 1 1 2 2 2 3
5 5 5 4 4 5 8 6 3 2 3 3 4 3 2 3 4 7 9 11 11 11 10 10 9 8 7 7 6 6 6 5 4 3 3 2 3 1 1 1 2 2 2 3
4 4 4 3 2 4 6 6 3 1 1 2 3 3 3 4 6 8 10 11 12 11 11 10 9 8 8 7 7 6 6 5 4 4 3 3 2 1 1 1 1 2 2 3
3 4 5 4 4 1 3 4 4 4 3 2 3 4 4 9 10 10 12 12 12 11 11 10 9 9 8 7 6 6 6 5 4 4 3 3 2 2 1 1 2 2 3 3
4 4 5 6 6 7 6 6 5 4 3 2 2 2 1 6 10 12 12 12 12 12 11 10 9 8 8 7 7 6 5 5 4 3 3 3 2 2 1 1 1 1 2 2
4 3 5 5 2 3 6 6 7 5 3 3 2 2 3 4 7 10 11 11 11 11 11 10 10 9 8 7 7 6 5 5 4 3 3 2 2 2 1 1 1 1 2 2
6 4 5 5 5 5 5 6 8 6 4 5 4 2 4 5 7 9 11 12 12 12 11 11 10 9 8 7 7 6 5 5 4 4 3 3 2 2 1 1 1 1 1 1
5 5 5 4 2 5 6 7 9 9 6 6 5 4 5 7 9 10 11 12 12 12 12 11 10 9 8 7 6 6 5 4 4 4 3 3 2 2 1 1 1 1 1 1
5 5 5 4 3 4 6 7 9 10 9 7 5 6 6 8 10 11 12 13 13 12 12 12 10 9 8 7 6 6 5 5 5 4 4 3 2 2 1 1 1 1 1 1
5 5 5 5 5 6 7 8 9 10 8 8 6 5 4 7 9 11 13 13 13 13 13 12 11 10 9 8 7 6 6 5 5 4 3 3 2 2 1 1 1 1 1 1
6 6 6 6 5 5 8 9 10 9 9 9 9 6 8 10 11 12 13 13 13 13 12 12 11 10 9 8 8 7 6 6 5 4 3 3 2 2 1 1 1 0 0 1
6 7 5 5 6 9 3 1 6 8 8 8 6 6 10 10 10 9 10 12 12 11 11 10 10 9 8 8 7 7 6 6 5 4 3 2 2 1 1 0 0 1 1 1
6 6 5 6 8 7 4 4 6 7 6 7 9 8 9 10 9 7 8 9 10 10 10 9 9 9 9 8 8 7 7 6 5 4 3 2 2 1 1 0 0 1 1 1
5 6 6 6 8 7 3 4 4 5 5 6 9 11 12 14 10 8 9 9 9 9 9 9 9 9 9 8 8 8 7 6 4 3 3 2 2 1 1 0 1 1 1 2
7 7 9 10 9 6 1 4 6 7 3 6 10 12 14 12 6 8 11 10 10 10 10 10 10 9 8 8 8 7 6 5 4 3 3 2 2 1 1 0 1 1 1 2
8 7 9 8 8 6 5 7 7 1 3 6 9 11 12 8 7 10 11 11 11 11 10 10 9 8 8 8 8 7 5 4 4 3 3 2 2 1 1 0 1 1 2 2
7 6 5 5 3 2 5 4 1 1 2 4 6 9 10 9 9 10 11 11 11 10 10 9 9 9 7 7 6 6 5 5 4 4 3 2 2 1 0 0 1 2 2 3
5 3 4 5 5 2 3 3 2 2 2 3 6 9 10 10 10 11 10 10 10 10 10 9 10 9 8 6 5 5 5 4 4 3 2 2 1 0 0 1 2 2 3 3
5 7 6 7 5 3 4 5 3 2 2 4 7 9 10 10 11 11 10 10 10 10 9 9 9 9 8 7 6 5 4 4 4 3 2 1 0 1 1 1 2 3 3 4
7 7 8 7 7 5 4 4 5 5 5 6 8 8 8 10 11 11 10 10 10 10 9 9 9 8 8 7 5 4 3 3 3 2 1 1 1 1 2 2 2 2 3 3
Wind_Direction
189 191 174 166 172 137 152 160 151 127 124 153 141 139 150 162 169 170 166 165 161 157 149 147 149 152 154 154 151 141 141 134 129 114 113 106 100 94 82 62 50 39 30 26
176 171 148 151 159 156 158 159 148 123 130 152 139 139 157 167 176 179 173 168 167 156 152 149 155 158 161 159 161 155 148 141 135 115 101 93 96 90 74 64 51 35 30 25
174 118 152 167 165 169 171 179 166 152 142 150 172 172 173 169 178 179 180 175 171 167 165 161 163 164 163 165 163 159 154 146 141 138 123 119 120 129 112 81 52 33 28 26
179 161 173 178 175 188 175 176 174 169 179 175 210 194 181 180 179 183 181 176 174 172 170 165 168 169 169 167 163 163 155 153 150 155 148 128 109 89 70 50 49 48 40 33
155 168 184 190 186 193 143 147 162 175 191 191 205 217 177 178 188 188 184 178 175 173 174 171 172 169 165 161 162 162 156 152 150 154 140 150 109 86 86 77 61 48 51 37
157 166 214 176 132 159 144 143 143 177 210 216 209 221 188 186 194 184 182 177 173 170 168 169 169 164 157 156 158 156 153 145 146 154 154 144 111 97 91 66 48 44 52 37
173 171 161 163 148 156 179 176 179 187 201 201 160 219 206 164 189 187 181 177 171 169 168 169 168 167 163 163 161 156 153 148 151 155 147 138 131 119 90 58 52 30 38 32
188 177 177 192 202 183 193 210 231 203 188 154 171 213 147 137 172 185 178 170 167 166 168 170 169 167 165 162 160 157 152 147 145 146 136 130 127 117 71 45 29 33 33 27
197 162 147 169 203 199 187 213 261 274 217 205 179 173 156 148 163 172 171 165 167 167 168 166 162 160 160 160 160 158 150 145 141 139 132 124 115 104 80 72 50 39 30 23
218 166 158 157 168 163 239 200 202 221 204 202 187 197 183 171 173 170 170 170 168 165 163 160 158 156 155 153 153 153 150 144 139 136 132 125 125 121 82 65 56 37 31 30
226 196 166 179 206 196 185 200 219 223 246 242 184 154 124 179 176 175 172 170 166 163 160 157 155 152 150 150 151 153 152 146 142 140 134 136 133 122 105 74 54 32 32 31
207 216 189 188 178 241 224 224 223 225 211 232 254 123 91 170 171 173 167 163 161 159 155 153 151 148 150 152 153 154 154 149 146 147 144 136 125 121 107 77 57 44 43 36
180 209 192 183 185 190 211 221 229 241 236 229 233 150 115 149 161 167 164 160 157 156 153 152 151 152 153 153 153 154 154 150 147 148 146 142 135 124 110 80 58 43 45 46
197 224 237 233 201 186 201 207 214 224 233 230 235 215 181 171 169 166 164 162 160 159 158 157 157 157 155 154 154 153 150 147 146 148 146 140 131 122 120 98 76 45 42 36
209 231 232 251 232 215 223 216 209 223 242 248 242 226 210 190 180 170 164 161 162 164 165 166 165 162 159 156 154 151 149 147 149 148 145 138 130 121 113 94 87 73 37 9
214 225 219 224 212 216 233 231 221 227 237 239 237 243 205 177 169 167 168 166 169 171 173 172 168 166 166 163 158 154 154 151 149 146 137 131 131 122 117 107 78 76 39 353
199 215 223 227 197 217 239 232 217 214 218 220 225 219 170 171 174 175 174 172 174 175 175 175 173 171 168 164 159 158 156 151 151 145 135 139 139 125 125 126 94 68 327 348
208 214 226 228 209 235 237 183 214 218 227 226 225 190 180 177 171 171 173 174 176 176 174 173 172 166 161 156 153 150 147 150 151 145 141 136 138 132 128 99 18 315 326 341
223 214 222 230 238 250 234 202 197 211 230 216 204 185 167 153 150 166 176 177 177 173 169 164 163 157 154 152 150 149 149 149 146 143 144 141 144 140 132 100 326 309 312 316
198 221 231 229 239 247 233 160 182 211 226 194 189 176 163 163 178 180 169 168 163 155 151 149 151 150 150 151 151 153 152 150 148 146 145 135 133 144 153 357 329 322 307 296
187 204 223 234 242 251 209 146 171 208 211 165 177 170 169 181 181 147 152 155 152 147 146 146 149 149 149 151 155 155 152 148 140 141 139 134 138 149 145 79 320 304 303 302
210 209 215 224 233 238 143 161 195 230 83 150 168 171 173 165 129 134 144 147 147 145 145 148 147 143 145 153 159 154 147 136 131 132 133 137 137 133 132 99 322 308 307 299
220 226 223 225 234 51 164 193 236 32 149 154 170 170 162 149 143 143 146 146 146 146 148 150 147 141 142 151 159 151 141 140 141 141 140 139 136 128 134 245 291 298 301 302
203 206 214 227 236 230 209 218 227 212 192 177 170 166 163 156 151 149 147 147 148 148 148 150 149 146 143 143 143 135 137 149 155 155 153 153 160 160 240 289 288 295 301 302
196 187 209 227 226 215 220 212 208 183 161 155 159 163 164 157 154 153 151 150 149 147 147 150 151 149 145 143 137 131 140 155 163 162 160 162 170 273 289 291 305 298 305 312
202 204 214 229 219 220 216 199 195 185 175 165 159 159 161 160 156 153 151 150 150 149 148 150 151 148 145 144 138 135 145 161 167 166 172 199 243 272 281 287 289 269 273 295
Height
1518 1517 1517 1517 1517 1517 1518 1522 1525 1526 1527 1527 1528 1530 1533 1536 1538 1539 1541 1543 1544 1547 1549 1551 1552 1554 1556 1557 1559 1559 1560 1560 1560 1561 1561 1561 1561 1561 1560 1559 1558 1557 1556 1554
1517 1517 1517 1517 1518 1519 1520 1523 1526 1527 1527 1527 1529 1530 1531 1534 1537 1538 1540 1542 1544 1547 1549 1551 1553 1554 1556 1557 1558 1560 1560 1561 1561 1561 1562 1561 1561 1561 1560 1559 1559 1558 1556 1555
1516 1518 1518 1518 1519 1521 1521 1523 1525 1527 1529 1528 1530 1532 1531 1533 1536 1538 1540 1542 1544 1546 1548 1551 1552 1554 1556 1557 1558 1559 1560 1561 1561 1562 1562 1562 1561 1562 1561 1561 1560 1558 1557 1556
1516 1517 1518 1518 1520 1519 1524 1522 1523 1526 1529 1531 1530 1536 1530 1530 1533 1536 1538 1541 1543 1546 1548 1550 1552 1554 1555 1557 1558 1559 1560 1561 1562 1562 1562 1563 1563 1563 1562 1562 1560 1559 1558 1556
1517 1517 1518 1519 1519 1519 1522 1523 1523 1525 1527 1529 1529 1531 1529 1527 1530 1532 1535 1538 1541 1544 1547 1549 1551 1553 1555 1557 1558 1559 1560 1561 1562 1562 1562 1563 1563 1563 1562 1562 1561 1560 1559 1557
1516 1518 1518 1518 1520 1521 1523 1524 1526 1526 1526 1534 1528 1530 1530 1524 1525 1527 1532 1536 1540 1543 1546 1549 1551 1553 1555 1556 1557 1559 1560 1561 1561 1562 1563 1563 1563 1563 1563 1562 1562 1561 1560 1558
1518 1517 1519 1520 1521 1523 1522 1526 1534 1536 1536 1532 1525 1527 1525 1519 1522 1525 1529 1534 1538 1542 1544 1547 1549 1551 1553 1555 1556 1558 1559 1560 1561 1562 1563 1563 1563 1563 1563 1563 1562 1561 1561 1559
1518 1521 1517 1517 1517 1519 1520 1521 1530 1536 1534 1528 1527 1526 1520 1520 1523 1526 1529 1533 1537 1540 1543 1546 1548 1550 1552 1554 1556 1557 1559 1560 1561 1562 1562 1563 1563 1563 1563 1562 1562 1561 1561 1560
1513 1518 1516 1517 1517 1516 1519 1519 1518 1523 1524 1527 1523 1520 1519 1521 1523 1525 1528 1532 1535 1539 1542 1545 1547 1549 1552 1554 1555 1557 1558 1559 1560 1561 1562 1562 1563 1563 1562 1562 1562 1561 1561 1560
1508 1515 1516 1518 1518 1519 1517 1515 1519 1522 1530 1531 1525 1521 1517 1519 1520 1523 1526 1530 1534 1537 1541 1544 1546 1549 1551 1553 1555 1556 1558 1559 1560 1561 1561 1561 1562 1562 1562 1562 1561 1561 1560 1560
1508 1511 1518 1517 1517 1515 1518 1518 1516 1516 1517 1524 1528 1522 1511 1513 1517 1520 1524 1529 1532 1536 1539 1543 1545 1548 1550 1553 1554 1556 1557 1558 1559 1560 1561 1561 1561 1561 1561 1561 1561 1560 1560 1559
1508 1508 1514 1513 1512 1512 1511 1511 1512 1518 1518 1516 1519 1521 1513 1514 1517 1521 1524 1528 1532 1536 1539 1542 1545 1547 1550 1552 1554 1555 1557 1558 1559 1559 1560 1561 1561 1561 1561 1561 1560 1560 1559 1559
1507 1508 1516 1518 1518 1515 1512 1511 1511 1510 1511 1514 1518 1519 1514 1515 1518 1521 1525 1528 1532 1535 1539 1542 1544 1547 1549 1551 1553 1555 1556 1557 1558 1559 1559 1560 1560 1560 1560 1560 1559 1559 1559 1558
1506 1504 1509 1515 1509 1507 1510 1511 1511 1510 1511 1512 1511 1512 1513 1515 1517 1521 1525 1528 1531 1535 1538 1541 1543 1546 1548 1550 1552 1554 1555 1556 1557 1558 1559 1559 1559 1559 1559 1559 1559 1558 1558 1557
1504 1503 1503 1503 1504 1505 1506 1507 1509 1509 1506 1507 1506 1507 1508 1511 1515 1519 1523 1527 1531 1534 1537 1540 1542 1545 1547 1549 1551 1553 1554 1555 1556 1557 1558 1558 1558 1558 1558 1558 1558 1557 1557 1557
1502 1502 1502 1505 1504 1505 1506 1504 1505 1507 1506 1505 1506 1507 1505 1510 1514 1518 1522 1525 1529 1532 1535 1539 1541 1544 1546 1548 1550 1551 1553 1554 1555 1556 1557 1557 1557 1557 1557 1557 1557 1556 1556 1555
1499 1500 1503 1503 1503 1505 1506 1499 1501 1502 1501 1502 1503 1503 1506 1509 1513 1516 1519 1523 1526 1530 1534 1536 1539 1542 1545 1547 1548 1550 1552 1553 1554 1555 1555 1556 1556 1556 1556 1556 1555 1555 1554 1554
1497 1498 1499 1500 1505 1512 1497 1494 1495 1497 1498 1498 1498 1501 1504 1507 1512 1516 1519 1521 1525 1528 1532 1534 1538 1540 1543 1545 1547 1549 1551 1552 1553 1554 1554 1554 1555 1555 1554 1554 1554 1553 1553 1552
1497 1497 1498 1499 1503 1499 1495 1494 1495 1496 1496 1496 1497 1500 1505 1509 1513 1516 1518 1521 1524 1527 1530 1533 1536 1539 1541 1544 1546 1548 1549 1550 1551 1552 1552 1553 1553 1553 1553 1552 1552 1551 1551 1550
1499 1497 1497 1499 1503 1503 1491 1490 1493 1495 1495 1494 1496 1499 1503 1507 1508 1512 1516 1519 1522 1525 1528 1531 1534 1537 1540 1542 1544 1546 1548 1549 1550 1550 1551 1551 1551 1551 1551 1550 1550 1549 1549 1548
1496 1496 1497 1496 1497 1491 1488 1492 1495 1498 1492 1492 1494 1497 1501 1503 1504 1509 1513 1517 1521 1524 1527 1530 1533 1535 1538 1540 1543 1545 1546 1547 1548 1548 1549 1549 1549 1549 1549 1548 1548 1547 1547 1546
1487 1490 1492 1492 1496 1493 1489 1491 1490 1489 1490 1491 1494 1497 1500 1503 1505 1508 1512 1515 1519 1522 1525 1528 1531 1534 1537 1539 1541 1543 1545 1546 1546 1547 1547 1547 1547 1547 1547 1546 1546 1545 1544 1543
1485 1484 1484 1485 1487 1487 1488 1488 1489 1490 1491 1492 1494 1497 1500 1503 1505 1508 1511 1514 1518 1521 1524 1527 1530 1533 1535 1538 1540 1542 1543 1544 1544 1545 1545 1545 1545 1545 1545 1544 1544 1543 1542 1541
1484 1487 1486 1485 1484 1487 1488 1489 1489 1490 1491 1492 1494 1497 1499 1502 1504 1508 1510 1513 1517 1520 1523 1526 1529 1531 1534 1536 1538 1540 1541 1542 1543 1543 1544 1544 1544 1543 1543 1542 1541 1541 1540 1539
1481 1485 1484 1483 1484 1487 1487 1487 1488 1489 1491 1492 1494 1496 1499 1501 1504 1507 1509 1512 1516 1519 1522 1525 1528 1530 1532 1534 1536 1538 1539 1540 1541 1541 1542 1542 1541 1541 1540 1539 1539 1538 1537 1536
1480 1481 1480 1478 1480 1482 1484 1485 1487 1488 1489 1491 1493 1495 1498 1501 1503 1506 1509 1512 1515 1518 1521 1524 1527 1529 1531 1533 1534 1536 1537 1538 1539 1539 1539 1539 1539 1538 1537 1536 1536 1534 1533 1532